XATCOBEO 1 00002U 12006B 12044.50794664 .00000000 00000-0 31967-3 0 16 2 00002 69.4857 253.8073 0796845 45.0970 191.9357 14.06476323 17 ESTAR 1 00003U 12006C 12044.50794664 .00000000 00000-0 28115-3 0 18 2 00003 69.4857 253.8073 0796156 45.0882 191.9444 14.06339491 16 GOLIAT 1 00004U 12006D 12044.50794664 .00000000 00000-0 26912-3 0 12 2 00004 69.4857 253.8073 0795838 45.0842 191.9484 14.06276301 13 ROBUSTA 1 00005U 12006E 12044.50794664 .00000000 00000-0 31201-3 0 10 2 00005 69.4856 253.8072 0796757 45.0911 191.9422 14.06456510 14 MASAT 1 00006U 12006F 12044.50794664 .00000000 00000-0 28115-3 0 11 2 00006 69.4856 253.8072 0796253 45.0851 191.9481 14.06356511 14 PW-SAT 1 00007U 12006G 12044.50794664 .00000000 00000-0 26588-3 0 14 2 00007 69.4856 253.8072 0796067 45.0829 191.9503 14.06319626 14 UNICUBESAT 1 00008U 12006H 12044.50794664 .00000000 00000-0 31967-3 0 12 2 00008 69.4856 253.8072 0796936 45.0885 191.9454 14.06489696 12 ALMASat-1 1 00009U 12006I 12044.50794664 .00000000 00000-0 12728-3 0 17 2 00009 69.4857 253.8073 0792730 45.0462 191.9859 14.05659674 17